Vertical_Velocity
1 9 -19 23 0 0 -1 9 -2 3 8 -6 -0 -0 -3 -1 2 -1 -1 -1 -0 -2 -0 -0 -0 -0 -0 1 1 -0 -1 -2 -1 -1 -2 -0 0 0 -2 -6 -2 -1 -3 -3
-1 13 -13 85 20 8 -2 -3 4 7 8 -2 0 0 1 -2 -0 -0 1 -0 -0 0 -0 -3 -1 0 2 -0 -1 -1 -1 -1 -3 -12 -12 -4 -0 -0 -0 -1 -3 -0 -5 -5
4 -1 1 16 -6 20 -11 -4 0 5 2 -0 -1 -1 1 1 2 0 -0 -2 -1 -0 -1 -1 -1 0 -0 -0 0 2 -4 -1 -5 -8 -8 -2 0 0 0 -3 -3 -2 -2 0
-15 6 3 7 -15 -7 -3 6 -1 -6 0 2 0 0 -2 0 1 0 1 2 -1 -2 -1 -1 -1 0 -0 -2 0 -1 -5 -2 -2 1 0 -0 -1 -0 0 -1 -2 -6 -3 -2
-13 9 -14 -31 -20 -15 17 1 -3 5 0 1 1 -0 -1 -2 3 -5 1 -2 0 -1 -3 -4 -2 -2 -1 1 -3 -1 -1 -2 -1 -1 -1 -1 -0 0 -0 0 0 -0 -0 -0
-2 -9 1 2 35 3 11 -2 5 -6 3 1 -2 -3 -1 -0 -3 1 -0 -3 -3 -1 -0 -0 2 2 -0 -1 -1 -0 -2 -2 -2 -1 0 -1 -6 -0 -0 0 -0 1 -1 -3
-4 -5 -11 -7 -19 20 -4 -10 4 -3 2 -2 -3 -0 -2 -1 -0 -5 1 -1 -5 1 -0 3 -2 -7 -3 -2 -1 -0 -1 -1 -1 -1 -3 -6 -9 -0 -1 -4 1 0 -0 1
1 -8 -1 -15 -4 6 -6 3 6 1 0 -1 1 1 -1 0 2 -2 -2 1 2 2 -1 -5 -3 -5 -4 -2 1 -1 -1 -2 -2 -5 -1 -6 3 -1 -2 -2 -3 -1 -1 0
-13 1 54 2 1 -5 -6 5 3 5 -10 -2 1 -1 -0 -2 0 -2 1 2 2 1 -2 -2 -1 -1 -1 -0 -0 -0 -1 -3 -6 -0 -2 -2 -5 0 0 -1 -6 -1 -1 -0
5 -2 -5 6 -2 -4 2 1 3 7 -10 1 1 -0 -1 1 -0 -2 0 0 -2 0 -0 -1 -1 -1 -4 -3 -1 -0 -1 -1 -2 0 -1 -7 -2 -0 0 -6 -13 -1 -1 -0
-0 1 -11 -11 -3 2 2 -2 3 3 -5 2 0 0 1 1 1 -4 1 -5 -4 -2 -3 -2 -1 -1 -3 -2 -3 -3 -4 -4 -1 -1 -0 -7 1 0 -5 -2 2 -1 -1 -0
-10 1 10 -7 6 3 0 -1 3 2 -8 -3 4 1 2 1 -1 -3 -0 -1 -0 -0 -3 -1 -1 -0 -0 -1 -2 0 -4 -7 -6 -8 -8 -0 -1 0 2 -1 -1 0 -0 1
13 -1 7 2 2 2 -2 -2 -2 2 -10 -0 1 -2 2 1 1 1 -6 -1 -1 -0 -1 -3 -1 -2 -2 -2 -3 -0 -0 0 -1 -3 -1 0 1 2 1 3 1 0 -2 -3
16 -9 -2 -0 2 -1 -2 -1 1 2 -4 -8 -0 0 1 1 -0 -1 0 -2 -3 -2 -1 -1 -1 -2 0 -1 -2 -2 -4 -1 -1 -1 -0 -1 -2 -0 -0 -1 -3 -1 -1 -2
9 -3 -5 2 -3 -6 0 3 3 3 3 -6 -0 2 1 -0 -0 2 2 1 -1 -1 -2 -2 -1 0 -1 -0 -1 -0 -1 -4 -4 -6 -2 -3 -2 -0 -1 -3 -1 -0 -0 -1
6 5 -4 1 -3 -3 1 -6 -0 1 -0 -12 -2 1 -0 -1 1 2 1 1 -1 -2 -1 0 1 1 -1 -1 -1 -2 -0 0 0 -1 -2 -1 1 0 -1 -2 -2 -2 -1 0
8 5 -5 3 -4 0 6 1 0 -1 2 -6 -1 -1 0 -1 -1 -1 -1 0 -1 -1 -1 -1 -1 0 -1 -0 -0 -1 1 1 0 1 -1 -1 -0 -3 -2 -1 -0 0 0 0
5 -2 -3 -1 2 6 -0 -0 5 1 -1 -2 -3 0 -2 -1 -1 -2 -1 -1 -1 -1 -0 -0 -1 0 -0 -0 -3 0 1 -0 -0 -0 -1 -1 0 -1 -1 1 0 -1 0 -1
-1 0 -4 -4 -2 -2 -1 1 3 3 -1 -5 -2 -4 -3 1 0 -1 -1 0 -2 0 -1 -0 -2 -1 -2 -5 -2 -2 -5 -3 -1 -1 1 0 -0 -1 1 -1 1 -2 -2 -0
3 -3 -6 -6 -5 2 2 -5 -1 -1 -1 -1 -3 1 0 1 1 1 -2 0 -0 -2 -1 1 0 -3 -2 -1 -1 3 -0 -0 -2 -1 0 -1 -0 -2 -1 -1 -4 -0 -1 -3
-8 -2 -0 2 2 5 1 -0 -2 1 -1 0 1 -2 -2 -0 -4 -1 1 -2 -1 -2 -8 -4 -1 -3 -3 -2 -1 -1 1 1 0 -1 -1 -1 -2 -1 -2 -1 1 2 1 1
-3 -0 3 0 1 1 -6 -1 -2 -1 -3 1 -3 -1 -1 0 0 -4 1 -2 -4 -3 -1 2 -1 -7 -1 -1 -1 0 -1 -1 -2 -1 0 -1 -1 -0 -1 -1 -0 -1 -3 1
1 0 2 3 1 -6 -2 -1 -3 0 -1 -1 1 -1 -2 1 1 -1 -3 -3 -1 0 1 -3 -6 -1 0 0 0 0 1 -1 1 1 -1 -2 -1 3 0 -2 4 -2 1 3
1 0 -2 -8 -2 -2 -3 -2 -2 0 0 -1 -3 -1 -3 1 -3 -1 -6 2 -4 -0 -0 -6 -3 -5 -3 -2 0 3 -0 1 1 0 -2 1 0 -1 1 2 -0 3 -0 0
2 2 -3 -0 -1 -0 1 0 -1 4 1 -6 -1 -1 -4 0 -3 -1 -1 2 -1 -4 -6 -4 -2 -1 -2 -2 -2 1 0 -0 -0 -1 -0 0 1 -3 -3 2 2 1 -2 -2
0 1 -1 1 -1 1 1 1 0 -1 4 1 1 -1 -3 -0 -3 -2 -2 -4 -4 -7 -2 -2 -1 -1 -0 -0 -1 1 0 -0 -0 -2 -0 -0 -1 0 -2 1 2 -1 -2 -1
0 -1 0 1 0 -2 -1 -2 -1 5 1 -1 -2 -4 -4 -2 -2 -0 -1 -4 -5 -2 -2 -1 -1 0 1 -1 -1 0 1 0 -2 -1 2 -1 2 -2 -1 -5 3 0 4 1
Height
1421 1412 1404 1398 1399 1411 1421 1423 1430 1437 1442 1447 1451 1452 1448 1451 1452 1456 1458 1459 1459 1459 1458 1460 1461 1461 1462 1459 1459 1463 1464 1474 1480 1481 1477 1478 1478 1476 1481 1495 1495 1508 1507 1497
1419 1413 1410 1408 1399 1409 1417 1422 1430 1438 1440 1445 1446 1442 1445 1448 1452 1456 1458 1458 1458 1458 1458 1461 1460 1459 1459 1458 1460 1463 1462 1480 1502 1493 1485 1478 1478 1477 1478 1482 1492 1501 1511 1501
1416 1410 1405 1406 1413 1413 1416 1422 1432 1439 1439 1441 1441 1440 1445 1448 1450 1454 1456 1457 1457 1458 1458 1460 1459 1461 1461 1460 1460 1460 1460 1477 1480 1494 1485 1482 1480 1477 1480 1485 1504 1495 1495 1497
1414 1405 1401 1403 1412 1416 1419 1423 1425 1424 1431 1439 1439 1441 1442 1445 1450 1452 1455 1457 1457 1459 1462 1462 1463 1461 1463 1464 1463 1462 1465 1482 1484 1481 1478 1478 1478 1478 1479 1485 1481 1488 1485 1490
1413 1406 1396 1394 1407 1416 1419 1421 1420 1422 1426 1433 1440 1442 1442 1444 1449 1451 1454 1455 1456 1457 1463 1464 1466 1462 1466 1466 1465 1467 1470 1490 1483 1494 1484 1481 1480 1479 1479 1481 1482 1482 1484 1488
1400 1402 1400 1403 1411 1415 1417 1420 1418 1419 1431 1436 1440 1440 1442 1444 1447 1451 1452 1454 1457 1461 1463 1463 1463 1464 1466 1468 1468 1471 1475 1484 1493 1496 1492 1485 1491 1484 1481 1482 1487 1484 1488 1486
1399 1393 1393 1395 1405 1415 1416 1421 1420 1419 1432 1434 1437 1436 1438 1444 1447 1450 1453 1454 1457 1463 1463 1465 1467 1469 1471 1471 1472 1472 1478 1486 1496 1507 1497 1506 1487 1484 1482 1487 1490 1489 1489 1490
1397 1388 1386 1389 1401 1411 1418 1420 1420 1419 1431 1432 1436 1436 1440 1446 1449 1451 1454 1457 1458 1462 1464 1471 1477 1481 1476 1478 1478 1476 1476 1484 1497 1504 1509 1493 1486 1485 1484 1482 1489 1489 1489 1490
1393 1394 1394 1395 1403 1413 1420 1420 1420 1420 1424 1439 1437 1438 1440 1449 1454 1457 1459 1460 1461 1464 1468 1473 1479 1485 1481 1484 1480 1479 1480 1482 1491 1498 1499 1493 1481 1482 1481 1482 1489 1487 1489 1492
1394 1393 1396 1401 1408 1416 1420 1421 1421 1422 1427 1437 1438 1440 1444 1447 1452 1459 1461 1462 1464 1465 1472 1476 1478 1483 1480 1485 1486 1484 1485 1490 1494 1496 1500 1487 1479 1480 1481 1488 1489 1486 1489 1490
1394 1395 1399 1405 1411 1416 1421 1424 1424 1425 1430 1439 1441 1443 1445 1448 1450 1457 1462 1465 1466 1469 1473 1475 1479 1481 1481 1482 1482 1483 1485 1494 1493 1496 1495 1495 1480 1482 1485 1485 1486 1487 1488 1488
1393 1395 1398 1405 1411 1418 1423 1427 1428 1428 1430 1444 1445 1446 1447 1449 1452 1455 1460 1463 1463 1465 1472 1476 1479 1480 1484 1484 1485 1481 1485 1483 1485 1487 1486 1482 1481 1481 1482 1482 1482 1485 1486 1487
1396 1399 1403 1407 1413 1419 1424 1429 1431 1432 1437 1447 1448 1450 1451 1452 1453 1455 1459 1463 1463 1464 1465 1469 1474 1475 1481 1483 1482 1480 1479 1479 1482 1483 1483 1483 1482 1483 1482 1482 1483 1483 1484 1484
1397 1401 1406 1410 1415 1421 1426 1431 1433 1434 1438 1446 1456 1453 1454 1455 1456 1457 1458 1460 1462 1465 1467 1469 1474 1476 1478 1481 1480 1480 1479 1478 1482 1485 1484 1483 1481 1481 1482 1483 1482 1483 1482 1483
1398 1401 1405 1411 1416 1423 1428 1432 1435 1435 1438 1446 1455 1456 1457 1458 1458 1459 1460 1461 1463 1465 1468 1471 1476 1476 1478 1479 1480 1480 1474 1475 1480 1479 1474 1476 1477 1480 1482 1483 1484 1484 1482 1481
1399 1402 1408 1414 1419 1426 1432 1436 1437 1437 1437 1442 1456 1460 1460 1461 1462 1462 1462 1464 1465 1466 1468 1473 1475 1476 1479 1482 1481 1472 1472 1472 1473 1473 1475 1476 1478 1480 1481 1483 1482 1481 1481 1480
1402 1406 1412 1418 1422 1428 1432 1434 1433 1437 1439 1441 1457 1460 1461 1462 1464 1464 1465 1466 1466 1468 1471 1474 1476 1476 1476 1479 1479 1471 1472 1473 1473 1474 1476 1478 1478 1479 1481 1482 1481 1480 1480 1478
1405 1409 1415 1421 1426 1431 1432 1431 1434 1438 1439 1442 1455 1461 1462 1463 1464 1466 1467 1467 1468 1470 1473 1475 1475 1477 1477 1478 1469 1469 1471 1473 1474 1475 1475 1476 1477 1479 1479 1479 1478 1477 1475 1474
1408 1414 1421 1427 1430 1433 1433 1434 1437 1439 1443 1442 1449 1458 1464 1463 1465 1467 1469 1469 1472 1474 1474 1475 1477 1477 1478 1467 1466 1468 1470 1471 1472 1473 1474 1475 1476 1476 1477 1476 1474 1474 1471 1469
1415 1420 1425 1430 1431 1433 1436 1441 1440 1440 1440 1442 1448 1453 1458 1462 1464 1469 1470 1471 1475 1484 1478 1476 1475 1471 1464 1463 1465 1467 1468 1470 1471 1472 1474 1474 1474 1474 1473 1473 1472 1469 1465 1462
1418 1421 1423 1427 1431 1434 1435 1437 1439 1440 1443 1443 1447 1451 1455 1461 1464 1468 1469 1474 1474 1486 1481 1478 1479 1469 1460 1460 1460 1464 1468 1469 1471 1472 1472 1472 1472 1471 1470 1468 1467 1465 1463 1460
1418 1421 1424 1430 1433 1433 1435 1441 1439 1437 1439 1442 1445 1449 1453 1458 1461 1464 1469 1474 1476 1482 1476 1476 1476 1459 1456 1458 1461 1463 1465 1467 1469 1469 1469 1468 1468 1467 1465 1463 1462 1459 1456 1454
1419 1422 1425 1426 1430 1436 1438 1434 1439 1438 1433 1436 1440 1448 1450 1456 1459 1464 1468 1476 1481 1476 1476 1479 1465 1454 1455 1458 1461 1463 1464 1465 1466 1466 1466 1465 1463 1461 1460 1458 1457 1454 1450 1448
1416 1415 1422 1424 1430 1424 1418 1416 1415 1419 1420 1427 1436 1442 1446 1452 1458 1464 1474 1474 1476 1483 1489 1475 1456 1452 1454 1457 1460 1461 1462 1463 1464 1463 1462 1460 1459 1457 1456 1454 1451 1448 1445 1442
1412 1411 1412 1418 1412 1413 1413 1413 1414 1415 1421 1427 1434 1439 1444 1454 1461 1463 1469 1475 1488 1481 1471 1458 1448 1449 1451 1454 1457 1459 1461 1461 1461 1460 1458 1456 1455 1453 1450 1448 1445 1442 1439 1436
1410 1408 1411 1411 1412 1414 1414 1414 1415 1418 1423 1426 1429 1438 1449 1458 1459 1465 1473 1477 1476 1461 1453 1448 1448 1449 1450 1453 1456 1458 1459 1458 1458 1456 1454 1453 1451 1448 1446 1443 1441 1438 1435 1431
1406 1407 1406 1406 1406 1407 1411 1413 1418 1420 1423 1426 1428 1441 1450 1456 1464 1463 1462 1462 1450 1445 1446 1447 1448 1449 1452 1454 1455 1456 1456 1455 1454 1453 1452 1450 1448 1445 1441 1436 1434 1431 1428 1425